User: anonymous   Login
Location: Lake Arresoe
(56.0000°N, 12.5000°E)
Time: 11:15:56
(UTC+02:00)
Language:

Cosmos 1674 - Orbit

View from above orbital plane
View from above orbital plane
View from above satellite
View from above satellite

Ground track
Ground track

The orbit data is extracted from the following two-line orbital elements,

1 15944U 85069A   20267.11925572  .00000376  00000-0  15923-4 0  9990
2 15944  82.5060 125.1462 0015444 295.6314  64.3324 15.19876696919217
Epoch (UTC): 23 September 2020 02:51:43
Eccentricity: 0.0015444
inclination: 82.5060°
perigee height: 495 km
apogee height: 517 km
right ascension of ascending node: 125.1462°
argument of perigee: 295.6314°
revolutions per day: 15.19876696
mean anomaly at epoch: 64.3324°
orbit number at epoch: 91921

The dashed part of the orbit path shows where the satellite is in the earth's shadow,  

DLR